Date,TemperatureHighF,TemperatureAvgF,TemperatureLowF,DewpointHighF,DewpointAvgF,DewpointLowF,HumidityHigh,HumidityAvg,HumidityLow,PressureMaxIn,PressureMinIn,WindSpeedMaxMPH,WindSpeedAvgMPH,GustSpeedMaxMPH,PrecipitationSumIn
2013-1-1,36.8,31.5,20.6,28.6,21.8,6.6,79,67,53,29.95,29.78,22,2,22,0.05
2013-1-2,26.6,19.9,14.1,15.2,10.4,6.9,76,66,56,30.02,29.94,20,1,20,0.00
2013-1-5,39.9,32.4,27.8,26.4,22.2,18.9,74,66,56,30.26,30.17,15,0,22,0.03
2013-1-6,39.9,33.5,28.8,34.0,29.4,19.6,97,85,67,30.20,29.95,17,2,17,0.04
2013-1-7,39.6,33.3,29.5,30.9,25.1,16.8,90,72,57,30.39,30.00,18,1,18,0.04
2013-1-8,44.1,37.0,30.0,35.8,31.6,23.4,99,82,65,30.41,30.31,28,2,28,0.00
2013-1-9,43.1,38.1,31.3,39.5,33.6,26.8,100,84,72,30.37,30.08,18,1,18,0.00
2013-1-10,44.1,38.5,30.9,35.8,26.8,24.2,83,63,47,30.53,30.13,29,1,29,0.00
2013-1-11,42.2,34.5,28.1,42.0,31.1,23.2,100,87,72,30.52,30.14,14,1,14,0.27
2013-1-12,44.5,41.9,39.4,44.5,41.9,39.4,100,100,100,30.20,30.07,20,0,20,0.15
2013-1-13,46.0,42.1,39.3,45.9,42.1,39.3,100,100,100,30.16,30.01,15,1,15,0.01
2013-1-14,52.3,45.4,33.5,52.1,43.0,29.1,100,92,61,30.27,29.92,25,1,25,0.06
2013-1-15,36.6,33.7,31.6,32.4,30.3,27.1,100,88,75,30.31,30.19,15,1,15,0.20
2013-1-16,33.5,31.2,29.4,32.2,30.8,26.9,100,98,78,30.22,29.77,14,1,14,0.20
2013-1-17,42.0,33.8,28.3,34.0,29.6,17.5,100,85,64,30.09,29.87,21,1,21,0.29
2013-1-18,28.2,23.3,19.6,18.4,8.7,2.1,69,53,37,30.46,30.00,28,2,28,0.15
2013-1-19,42.5,37.1,25.0,36.5,28.8,13.5,87,72,58,30.39,29.92,36,7,36,0.05
2013-1-20,49.7,40.5,27.4,35.5,28.3,13.1,85,63,39,29.97,29.64,36,3,36,0.00
2013-1-21,27.4,24.3,19.6,25.3,15.9,9.4,100,72,52,30.09,29.78,20,0,20,0.00
2013-1-22,23.6,17.9,10.7,23.3,6.0,-4.7,100,62,39,30.11,29.76,27,2,27,0.00
2013-1-23,16.9,10.4,5.4,-0.9,-3.5,-5.9,68,53,39,30.17,30.08,24,1,24,0.00
2013-1-24,19.4,11.0,2.8,0.8,-4.4,-7.5,69,51,34,30.28,30.09,35,3,35,0.00
2013-1-25,22.4,15.5,8.2,14.8,2.8,-4.7,91,59,33,30.34,30.03,17,1,17,0.00
2013-1-26,23.9,16.3,11.0,12.9,7.7,1.5,94,70,45,30.29,29.99,31,2,31,0.00
2013-1-27,31.1,20.1,10.4,10.3,3.1,-2.2,83,50,27,30.47,30.29,27,1,27,0.00
2013-1-28,31.8,26.0,19.1,31.8,17.7,-2.4,100,74,37,30.45,29.98,13,0,13,0.01
2013-1-29,40.7,33.5,29.2,37.6,33.1,29.2,100,98,86,30.18,29.97,11,0,11,0.16
2013-1-30,54.1,47.7,35.6,54.1,47.7,35.6,100,100,100,30.13,29.48,35,6,35,0.00
2013-1-31,56.6,40.9,27.8,56.3,27.3,12.1,100,60,43,29.69,29.08,63,9,63,0.33
2013-2-1,29.7,25.3,17.2,16.6,11.7,6.9,78,56,43,30.14,29.69,34,4,34,0.00
2013-2-2,26.9,22.0,14.2,19.3,11.1,6.9,90,63,51,30.26,30.05,23,3,23,0.00
2013-2-3,30.2,22.7,16.8,20.8,17.2,13.9,97,80,59,30.05,29.74,11,0,11,0.00
2013-2-4,28.6,23.4,18.8,18.3,11.2,5.5,87,61,40,29.96,29.75,30,2,30,0.00
2013-2-5,25.3,23.4,21.6,23.3,18.9,7.5,97,84,54,29.98,29.90,7,0,7,0.00
2013-2-6,36.5,29.0,23.9,28.8,21.3,2.5,100,75,38,30.32,29.89,23,1,23,0.03
2013-2-7,30.5,24.2,19.3,16.4,8.2,1.8,70,51,37,30.50,30.31,16,1,16,0.00
2013-2-8,30.5,27.4,21.3,30.5,25.6,15.1,100,94,65,30.38,29.50,43,4,43,0.00
2013-2-9,25.4,20.5,16.1,23.2,15.7,2.4,100,83,53,30.24,29.59,49,6,49,0.03
2013-2-10,35.7,22.6,11.2,20.5,7.7,-1.9,78,54,25,30.43,30.23,19,1,19,0.08
2013-2-11,43.7,36.5,26.6,43.3,35.5,20.2,100,96,77,30.34,29.65,20,2,20,0.97
2013-2-12,42.9,37.1,29.5,39.2,31.5,23.9,100,81,60,29.93,29.67,27,3,27,0.00
2013-2-13,41.2,32.8,27.1,27.7,24.9,22.0,83,73,54,29.92,29.66,17,1,17,0.00
2013-2-14,40.7,33.0,25.5,32.7,27.4,24.2,100,82,53,30.00,29.70,17,1,17,0.05
2013-2-15,44.6,37.2,31.3,38.1,35.3,31.3,100,93,77,30.03,29.91,23,3,23,0.00
2013-2-16,37.2,32.3,25.8,37.2,27.8,20.6,100,85,62,29.93,29.67,27,4,27,0.01
2013-2-17,27.0,22.1,14.3,24.3,7.6,0.3,94,54,35,29.81,29.51,46,7,46,0.01
2013-2-18,31.2,21.8,13.4,10.6,5.1,1.3,62,49,34,30.20,29.81,36,4,36,0.00
2013-2-19,43.0,35.7,25.5,42.6,31.2,9.9,100,84,49,30.20,29.62,24,3,24,0.29
2013-2-20,37.3,29.3,21.7,37.3,19.1,9.8,100,66,50,29.89,29.62,30,4,30,0.25
2013-2-21,31.8,23.9,19.3,17.5,13.7,11.4,74,65,54,30.23,29.86,32,3,32,0.25
2013-2-22,37.1,29.0,20.7,28.2,22.1,14.1,87,75,58,30.37,30.22,28,1,28,0.25
2013-2-23,35.6,33.4,31.3,35.6,32.6,27.6,100,97,85,30.29,29.81,25,3,25,0.28
2013-2-24,37.2,34.1,29.7,37.0,33.6,29.4,100,98,86,29.90,29.69,25,4,25,0.25
2013-2-25,43.1,34.8,27.1,31.5,28.9,25.4,99,80,61,30.24,29.90,20,1,20,0.25
2013-2-26,39.3,34.6,31.0,33.1,30.7,28.0,100,86,65,30.31,30.02,20,1,20,0.25
2013-2-27,41.9,38.5,32.3,41.9,38.5,32.3,100,100,100,30.02,29.54,45,4,45,1.86
2013-2-28,46.1,37.9,32.7,43.1,37.3,32.6,100,98,84,29.63,29.53,13,0,13,0.25
2013-3-1,44.7,36.9,32.1,35.6,32.2,28.8,100,84,63,29.76,29.55,21,1,21,0.00
2013-3-2,36.9,33.5,30.1,30.3,27.6,26.4,91,79,68,29.73,29.65,18,1,18,0.00
2013-3-3,34.7,29.7,26.6,26.4,23.8,21.0,88,79,63,29.68,29.61,23,2,23,0.00
2013-3-4,38.9,30.7,25.5,25.4,22.5,19.8,82,72,57,29.81,29.66,33,4,33,0.00
2013-3-5,46.1,35.6,27.3,31.9,26.9,22.0,86,71,55,30.04,29.80,27,3,27,0.00
2013-3-6,39.7,35.8,32.3,37.5,33.2,29.5,100,90,78,30.02,29.89,36,5,36,0.02
2013-3-7,35.9,31.9,29.3,32.5,30.9,29.3,100,96,81,30.00,29.88,44,8,44,0.07
2013-3-8,37.1,31.7,29.2,35.3,30.5,27.9,100,96,74,30.12,29.91,37,5,37,0.06
2013-3-9,51.7,39.0,30.9,32.0,27.1,22.3,98,65,35,30.34,30.11,36,4,36,0.54
2013-3-10,42.2,33.0,27.9,34.5,30.4,27.0,100,90,71,30.39,30.32,8,1,10,0.01
2013-3-11,47.7,40.2,33.7,44.6,39.4,33.7,100,97,88,30.34,30.13,18,1,18,0.01
2013-3-12,50.7,47.5,40.2,50.6,47.4,40.1,100,100,97,30.14,29.72,20,0,23,0.91
2013-3-13,49.4,40.7,32.2,40.1,31.0,24.3,100,71,46,29.84,29.75,18,1,18,0.00
2013-3-14,37.0,30.6,27.1,29.2,19.2,12.2,87,63,44,29.88,29.78,30,3,30,0.00
2013-3-15,38.6,31.6,24.4,31.3,19.9,12.1,81,62,46,29.92,29.70,30,4,30,0.00
2013-3-16,37.7,31.9,28.4,30.0,23.2,14.0,99,72,41,29.89,29.73,20,1,20,0.00
2013-3-17,30.2,27.1,24.2,30.0,20.4,10.5,99,77,49,30.30,29.88,17,0,17,0.00
2013-3-18,32.4,27.4,21.0,28.1,13.6,4.2,100,58,33,30.42,30.10,23,1,23,0.00
2013-3-19,38.6,32.5,28.1,38.6,32.5,28.1,100,100,98,30.10,29.61,21,1,21,0.64
2013-3-20,40.6,33.1,27.5,31.8,22.8,18.4,100,68,43,29.83,29.72,31,2,31,0.00
2013-3-21,34.8,30.0,26.2,27.7,24.9,18.0,99,82,65,29.83,29.62,20,1,20,0.00
2013-3-22,39.0,30.6,21.4,23.5,19.1,13.6,75,62,47,29.81,29.66,28,2,28,0.00
2013-3-23,44.3,35.2,27.4,25.2,21.8,18.6,81,60,37,29.87,29.72,40,3,40,0.00
2013-3-24,45.9,36.2,27.1,30.7,24.1,18.7,84,62,47,29.90,29.71,21,1,21,0.00
2013-3-25,42.2,36.5,31.4,32.9,29.4,26.1,97,76,55,29.76,29.44,17,1,17,0.01
2013-3-26,49.9,38.9,33.1,32.4,27.4,19.7,86,65,42,29.83,29.54,14,1,14,0.00
2013-3-27,52.5,41.0,29.7,29.6,25.0,19.6,74,54,33,29.91,29.80,19,2,19,0.00
2013-3-28,48.4,41.0,33.9,36.7,32.3,28.3,93,72,54,30.06,29.89,16,1,16,0.00
2013-3-29,53.9,45.2,36.9,35.0,32.1,28.8,81,62,40,30.10,30.01,17,1,17,0.00
2013-3-30,55.5,44.7,33.5,33.5,28.5,21.0,86,57,28,30.13,30.03,16,1,17,0.00
2013-3-31,52.2,44.6,36.4,44.0,32.6,20.9,100,65,45,30.14,29.65,21,2,21,0.23
2013-4-1,54.9,44.1,33.4,50.0,40.6,18.6,100,88,54,29.85,29.59,24,2,24,0.09
2013-4-2,41.1,33.8,27.0,21.9,16.0,10.0,78,50,30,30.01,29.85,26,2,26,0.00
2013-4-3,44.2,35.1,27.7,18.3,15.3,11.2,62,45,29,30.24,30.01,23,2,23,0.00
2013-4-4,46.0,36.1,26.9,34.6,22.8,14.2,91,60,35,30.36,30.10,17,3,17,0.00
2013-4-5,58.1,44.2,36.9,37.8,31.4,20.7,96,65,30,30.10,29.68,19,3,22,0.00
2013-4-6,48.2,38.2,31.1,28.1,17.3,8.2,79,46,21,30.33,29.93,21,2,21,0.00
2013-4-7,49.9,41.8,33.1,44.1,36.7,27.6,100,83,63,30.32,30.04,26,4,26,0.00
2013-4-8,64.8,52.1,41.4,47.3,44.3,41.4,100,77,46,30.09,29.98,11,1,11,0.00
2013-4-9,77.3,59.8,45.3,55.8,47.4,42.8,100,69,35,30.07,29.90,22,2,22,0.01
2013-4-10,66.8,53.1,46.0,54.6,49.2,45.3,100,88,64,30.01,29.84,17,2,17,0.28
2013-4-11,59.5,48.4,42.9,50.8,45.8,36.5,100,91,67,30.10,29.81,13,2,13,0.01
2013-4-12,43.4,39.7,36.7,38.7,35.1,27.8,100,85,57,30.11,29.73,23,3,24,0.41
2013-4-13,48.7,38.9,34.6,41.4,37.2,34.6,100,94,69,29.96,29.72,15,2,15,0.02
2013-4-14,53.9,47.4,40.4,41.4,36.4,27.1,97,68,40,30.22,29.95,19,2,19,0.00
2013-4-15,52.6,44.0,36.6,39.5,32.5,26.9,98,65,47,30.40,30.21,12,1,12,0.00
2013-4-16,56.3,48.0,37.8,52.1,45.8,37.6,100,92,78,30.41,30.15,17,3,18,0.00
2013-4-17,67.1,56.0,44.5,53.0,42.8,32.8,100,66,34,30.33,30.12,14,1,14,0.01
2013-4-18,55.5,48.2,40.0,49.1,40.0,33.6,98,76,45,30.40,30.15,19,2,19,0.00
2013-4-19,65.2,56.8,49.6,64.1,56.7,49.2,100,100,93,30.16,29.72,26,4,26,0.02
2013-4-20,58.3,51.0,41.5,58.3,40.7,28.2,100,72,40,30.26,29.67,26,3,26,0.34
2013-4-21,52.6,40.9,32.2,33.7,25.2,18.8,81,55,33,30.65,30.25,19,2,19,0.00
2013-4-22,51.4,42.0,32.3,37.8,33.4,28.2,97,73,42,30.69,30.53,16,2,16,0.00
2013-4-23,44.0,40.1,36.5,42.6,38.3,31.6,100,93,80,30.53,30.05,12,0,12,0.00
2013-4-24,63.0,49.0,40.4,49.1,44.7,40.1,100,87,58,30.06,29.90,18,3,18,0.00
2013-4-25,62.2,52.7,43.8,50.0,37.3,23.0,100,61,30,30.29,29.90,15,1,15,0.02
2013-4-26,60.2,52.0,41.4,40.2,33.4,25.1,68,50,37,30.41,30.28,14,2,14,0.02
2013-4-27,61.9,50.2,38.7,46.8,38.7,30.8,100,67,32,30.42,30.32,15,1,15,0.02
2013-4-28,61.1,50.4,38.7,47.3,39.6,32.7,100,71,37,30.34,30.24,14,2,14,0.02
2013-4-29,57.4,51.6,47.1,49.4,43.5,35.5,98,75,47,30.29,30.24,13,1,13,0.02
2013-4-30,61.6,52.8,44.1,43.4,35.5,26.0,88,56,27,30.36,30.24,13,1,13,0.02
2013-5-1,64.1,52.4,42.3,48.7,40.2,28.3,95,64,44,30.50,30.35,13,2,13,0.02
2013-5-2,65.9,55.8,44.1,47.9,44.3,39.5,100,68,44,30.47,30.35,10,2,12,0.00
2013-5-3,63.3,50.2,42.7,48.7,41.0,35.6,100,72,45,30.49,30.37,13,2,13,0.00
2013-5-4,64.6,49.8,39.5,48.0,43.3,39.4,100,80,48,30.38,30.28,19,2,19,0.00
2013-5-5,58.4,46.5,36.2,46.3,41.8,36.2,100,85,55,30.31,30.24,12,1,12,0.01
2013-5-6,64.1,52.2,38.3,53.2,46.9,38.3,100,83,64,30.29,30.18,12,1,12,0.00
2013-5-7,69.8,58.2,46.2,61.8,53.9,45.7,100,87,67,30.20,30.13,12,1,12,0.00
2013-5-8,65.0,57.5,54.0,64.4,57.3,54.0,100,100,95,30.17,30.04,22,1,22,0.36
2013-5-9,60.2,55.0,50.7,60.2,55.0,50.7,100,100,100,30.06,29.89,8,0,8,0.94
2013-5-10,74.6,62.1,52.0,64.4,56.7,52.0,100,84,50,30.01,29.93,14,1,14,0.93
2013-5-11,61.7,57.6,54.5,61.7,57.6,54.5,100,100,98,29.95,29.72,11,2,15,0.64
2013-5-12,66.8,59.1,49.5,61.1,47.3,30.4,100,68,34,29.89,29.65,22,2,22,0.05
2013-5-13,56.1,47.8,40.0,35.0,32.7,28.5,77,57,39,30.07,29.88,20,2,20,0.04
2013-5-14,56.9,46.8,37.3,40.7,34.0,30.3,90,63,38,30.09,30.01,14,1,14,0.04
2013-5-15,57.7,50.5,40.6,55.4,47.6,40.1,100,91,55,30.10,29.71,16,2,16,0.02
2013-5-16,75.5,62.2,48.8,58.3,51.1,44.5,100,71,34,29.84,29.71,15,2,15,0.01
2013-5-17,71.0,59.5,49.7,50.7,45.1,40.5,89,60,40,30.23,29.83,14,1,14,0.00
2013-5-18,67.2,58.3,48.4,53.8,51.0,47.4,100,78,55,30.33,30.23,13,2,13,0.00
2013-5-19,58.1,53.4,48.5,55.8,52.9,48.5,100,98,91,30.37,30.22,9,1,9,0.39
2013-5-20,74.4,62.6,54.5,69.4,61.4,54.5,100,96,80,30.22,29.98,13,1,13,0.02
2013-5-21,79.7,67.9,59.0,72.4,65.8,59.0,100,93,77,30.01,29.87,14,2,14,0.01
2013-5-22,69.9,59.6,51.7,68.7,59.2,51.7,100,99,92,29.97,29.89,9,1,9,0.01
2013-5-23,67.0,62.7,60.6,67.0,62.7,60.6,100,100,100,29.90,29.82,19,4,19,0.18
2013-5-24,69.0,57.6,44.3,68.1,57.2,44.3,100,99,91,29.85,29.68,22,2,22,0.75
2013-5-25,47.2,43.4,41.0,46.7,43.4,40.8,100,100,97,29.88,29.78,24,3,24,0.39
2013-5-26,59.3,49.3,41.1,45.6,42.7,41.1,100,80,57,30.17,29.84,24,2,24,0.01
2013-5-27,69.8,55.9,41.8,47.6,43.5,38.8,98,67,36,30.21,30.12,14,1,14,0.02
2013-5-28,68.6,56.5,46.6,55.9,50.1,41.3,100,81,47,30.25,30.17,11,1,11,0.06
2013-5-29,71.1,61.7,54.7,68.2,61.1,54.7,100,98,90,30.18,30.03,12,1,12,0.11
2013-5-30,85.5,73.2,60.2,74.1,67.6,60.2,100,84,60,30.15,30.07,12,1,12,0.00
2013-5-31,86.9,74.8,65.0,74.9,68.3,64.4,100,82,55,30.14,30.02,12,1,12,0.00
2013-6-1,81.9,71.9,63.3,72.5,68.3,63.3,100,89,71,30.05,29.95,16,2,16,0.00
2013-6-2,77.4,68.4,62.0,71.3,66.5,61.9,100,94,80,29.96,29.83,16,3,16,0.00
2013-6-3,74.6,65.1,60.7,73.1,64.9,57.8,100,99,88,29.89,29.82,10,1,10,1.07
2013-6-4,71.4,60.3,51.2,58.1,48.6,42.7,91,66,48,30.11,29.88,24,2,24,0.00
2013-6-5,69.0,60.5,50.7,53.9,50.3,46.9,94,70,51,30.22,30.11,12,1,12,0.00
2013-6-6,68.3,59.0,52.0,62.2,56.4,51.9,100,92,64,30.20,30.07,12,1,12,0.07
2013-6-7,58.2,56.1,53.4,58.1,56.1,53.4,100,100,100,30.07,29.71,22,1,22,4.92
2013-6-8,73.7,61.8,51.5,67.4,59.9,51.5,100,94,78,30.06,29.58,18,2,18,0.46
2013-6-9,75.7,65.7,56.3,65.1,60.7,56.3,100,85,64,30.24,30.05,12,1,12,0.00
2013-6-10,70.1,61.2,16.4,64.7,59.1,0.0,100,96,76,30.30,29.93,10,0,14,0.83
2013-6-11,75.3,63.8,57.0,70.6,63.2,57.0,100,98,80,29.94,29.60,15,1,15,0.93
2013-6-12,69.3,61.9,57.2,60.6,56.6,52.4,100,84,65,29.87,29.65,24,2,24,0.00
2013-6-13,100.1,55.4,50.6,57.4,54.1,44.2,100,96,85,29.85,29.55,17,1,17,0.77
2013-6-14,70.5,56.9,49.7,55.6,52.1,49.5,100,86,50,29.85,29.54,19,1,19,0.56
2013-6-15,76.0,64.9,55.1,56.1,51.7,42.0,96,67,32,29.99,29.84,10,1,10,0.57
2013-6-16,73.4,64.3,55.0,63.7,56.2,45.8,92,75,53,29.99,29.78,13,1,13,0.57
2013-6-17,79.8,68.8,60.4,65.1,62.0,59.1,98,81,57,29.98,29.85,14,2,14,0.38
2013-6-18,77.4,68.0,58.4,67.7,63.3,58.1,100,86,67,29.94,29.85,9,1,9,0.57
2013-6-19,74.5,62.4,52.6,58.5,52.1,42.1,100,73,35,30.19,29.90,12,1,12,0.01
2013-6-20,74.2,63.6,51.5,57.2,46.9,-6.9,100,61,44,30.29,30.17,11,1,11,0.00
2013-6-21,76.0,65.9,57.6,60.3,56.3,53.7,91,73,54,30.31,30.25,13,2,13,0.00
2013-6-22,76.5,66.2,58.7,61.0,56.8,52.6,91,73,51,30.33,30.17,14,2,14,0.00
2013-6-23,80.8,70.3,60.3,68.8,64.1,57.7,98,82,61,30.30,30.09,17,2,17,0.00
2013-6-24,86.6,75.7,67.5,73.1,68.9,61.6,100,81,57,30.10,29.95,13,2,13,0.00
2013-6-25,85.5,74.5,64.5,72.3,67.3,62.8,97,79,56,30.02,29.80,145,1,145,0.00
2013-6-26,80.3,73.7,68.1,70.6,68.4,66.0,99,84,69,29.89,29.77,11,1,11,0.04
2013-6-27,76.5,69.2,65.3,71.6,67.8,65.0,100,95,81,29.85,29.67,9,1,14,0.47
2013-6-28,77.8,71.5,66.3,72.2,69.2,66.3,100,93,79,29.75,29.53,37,3,37,0.06
2013-6-29,75.3,70.5,67.4,69.6,68.1,66.7,100,93,78,29.76,29.53,11,2,14,0.01
2013-6-30,75.2,69.8,67.9,71.3,68.8,67.3,100,97,88,30.01,29.75,9,1,11,0.11
2013-7-1,74.7,70.4,69.1,74.4,70.4,69.1,100,100,98,30.11,29.96,14,2,14,0.13
2013-7-2,76.5,71.3,69.4,73.3,70.5,68.8,100,97,86,30.24,30.11,13,2,13,0.07
2013-7-3,81.4,72.4,67.8,72.6,70.1,67.7,100,93,73,30.32,30.20,11,2,12,0.00
2013-7-4,83.9,75.3,70.2,74.6,71.8,69.6,100,90,69,30.37,30.18,16,2,16,0.02
2013-7-5,71.1,70.9,70.7,70.2,69.6,69.1,97,96,95,30.23,30.21,4,0,4,0.00
2013-7-6,88.3,84.3,77.5,75.4,72.6,69.6,82,68,56,30.09,30.03,9,1,12,0.00
2013-7-7,83.3,76.9,73.7,73.8,72.7,71.7,95,87,73,29.99,29.93,6,1,11,0.00
2013-7-8,84.6,76.1,68.3,72.2,69.2,65.0,97,80,59,30.06,29.96,12,2,12,0.00
2013-7-9,79.5,72.1,67.2,75.3,70.1,66.6,100,94,73,30.11,30.04,10,0,10,0.06
2013-7-10,79.7,74.1,70.3,74.3,71.8,70.3,100,93,83,30.06,29.83,13,2,13,0.00
2013-7-11,76.3,72.7,68.1,73.5,71.7,67.3,100,97,88,29.93,29.83,9,0,9,1.14
2013-7-12,78.4,70.2,64.7,68.6,63.7,59.6,85,80,70,30.17,30.05,7,1,9,0.01
2013-7-13,76.5,69.4,64.2,73.7,68.3,60.5,100,97,85,30.33,30.16,9,0,9,0.09
2013-7-14,83.7,76.1,70.1,76.4,72.4,70.1,100,89,70,30.35,30.24,10,1,10,0.01
2013-7-15,89.8,78.7,70.1,76.2,71.8,68.3,100,81,52,30.26,30.14,12,0,12,0.03
2013-7-16,90.1,79.4,71.6,72.9,69.1,66.8,88,72,49,30.20,30.14,11,1,11,0.00
2013-7-17,88.5,78.3,70.2,74.7,70.8,67.4,95,79,56,30.21,30.08,8,1,8,0.00
2013-7-18,100.1,80.7,71.9,76.5,72.4,68.8,92,77,51,30.09,29.99,8,1,8,0.00
2013-7-19,91.9,81.7,75.1,79.5,75.7,73.6,97,83,64,29.99,29.81,15,2,15,0.00
2013-7-20,88.6,79.3,70.9,77.1,73.8,66.7,95,84,63,29.87,29.72,17,2,18,0.39
2013-7-21,84.1,73.4,67.1,68.9,66.0,62.3,97,79,55,30.03,29.86,8,0,8,0.02
2013-7-22,79.2,72.0,67.2,73.3,70.4,66.6,100,95,81,30.01,29.87,10,0,10,0.02
2013-7-23,83.3,74.3,70.3,76.5,72.3,68.8,100,94,70,29.87,29.60,13,2,13,1.15
2013-7-24,82.2,73.8,66.2,75.1,68.9,57.9,100,86,67,29.94,29.63,12,0,12,0.01
2013-7-25,66.5,59.4,55.8,59.5,55.9,49.6,100,89,71,30.09,29.93,13,1,13,0.24
2013-7-26,72.6,63.4,58.1,67.1,62.2,58.0,100,96,81,30.08,29.97,12,1,12,0.51
2013-7-27,80.3,71.1,64.7,68.4,66.0,59.9,100,85,53,30.18,30.02,10,1,11,0.00
2013-7-28,79.5,71.0,65.9,72.5,68.3,65.8,100,92,70,30.03,29.97,8,0,8,0.00
2013-7-29,83.7,74.9,66.0,74.8,70.7,59.3,100,88,66,30.09,29.98,11,1,11,0.01
2013-7-30,81.7,70.6,61.7,64.3,60.4,56.7,87,71,49,30.16,30.09,9,1,9,0.00
2013-7-31,79.6,70.5,61.9,65.5,61.9,58.3,94,75,52,30.17,30.07,9,1,9,0.00
2013-8-1,76.7,68.6,64.8,70.9,66.1,63.7,100,92,74,30.08,29.88,9,1,11,0.08
2013-8-2,81.3,73.0,66.1,70.7,67.2,64.5,100,84,59,29.92,29.80,10,1,10,0.13
2013-8-3,75.8,69.2,64.7,68.6,65.6,61.9,97,89,74,29.93,29.85,10,1,10,0.13
2013-8-4,79.8,71.2,62.3,62.6,58.8,54.8,82,66,50,29.95,29.83,11,1,11,0.00
2013-8-5,74.1,62.0,56.0,56.6,52.8,47.2,92,74,39,30.07,29.94,10,0,14,2.69
2013-8-6,74.8,64.6,54.7,60.8,54.0,47.6,88,69,51,30.17,30.06,10,1,10,2.69
2013-8-7,75.0,65.7,56.9,63.4,59.3,55.3,99,81,55,30.20,30.13,12,1,12,0.00
2013-8-8,74.4,69.6,66.4,70.5,68.0,63.2,100,95,86,30.13,30.05,14,2,14,0.12
2013-8-9,73.6,70.9,69.9,73.1,70.7,69.2,100,99,98,30.07,29.82,17,3,17,0.53
2013-8-10,80.0,68.0,-8.4,69.9,62.0,-17.9,100,82,56,30.09,29.85,12,1,12,0.53
2013-8-11,75.3,65.0,53.4,61.7,54.3,48.8,92,70,46,30.13,30.05,10,1,10,0.00
2013-8-12,77.9,69.0,63.3,66.0,62.3,56.7,99,81,52,30.07,29.96,8,0,8,0.00
2013-8-13,71.8,67.0,63.9,68.7,66.2,63.3,100,97,83,29.97,29.72,4,0,4,0.11
2013-8-14,70.9,63.1,56.3,64.3,54.1,50.2,100,74,52,30.04,29.74,14,1,16,0.01
2013-8-15,72.5,52.8,-19.9,57.3,46.9,-13.4,100,81,45,30.16,30.03,8,0,8,0.00
2013-8-16,74.9,65.7,55.8,73.0,43.5,0.0,100,74,44,30.23,30.13,9,0,9,0.00
2013-8-17,79.5,65.4,-4.1,61.7,56.1,-8.9,100,75,42,30.30,30.23,8,0,8,0.00
2013-8-18,73.6,64.8,58.2,71.9,58.6,0.0,100,84,60,30.29,30.14,4,0,4,0.00
2013-8-19,76.8,66.3,57.4,74.1,60.6,54.7,100,83,61,30.14,30.02,7,0,7,0.01
2013-8-20,83.1,70.5,60.8,64.5,60.7,0.0,100,77,46,30.24,30.04,11,0,11,0.01
2013-8-21,83.9,73.0,64.3,68.3,63.9,59.4,94,75,47,30.22,30.08,9,0,9,0.00
2013-8-22,73.4,69.3,66.5,71.9,67.3,0.0,100,98,89,30.09,29.89,14,1,14,0.42
2013-8-23,77.0,68.8,60.0,73.2,58.2,0.0,100,81,52,30.14,29.87,16,1,16,0.31
2013-8-24,76.5,62.6,56.0,56.3,51.1,0.0,100,73,45,30.39,30.13,11,1,11,0.00
2013-8-25,75.1,74.8,74.8,55.5,55.5,54.3,51,51,51,30.33,30.32,5,2,5,0.00
2013-8-27,79.4,79.4,79.4,71.2,71.2,70.8,76,76,76,29.87,29.86,1,0,1,0.00
2013-8-29,73.1,67.6,61.5,66.6,63.1,59.0,92,86,77,30.07,30.02,5,0,10,1.27
2013-8-30,76.8,65.9,0.0,71.7,62.2,0.0,100,93,74,30.06,29.88,9,0,9,0.00
2013-8-31,76.7,71.1,68.3,71.5,69.5,68.1,100,95,83,29.98,29.83,14,1,14,0.01
2013-9-1,75.3,69.8,0.0,72.6,68.1,0.0,100,96,88,29.90,29.85,4,0,5,0.00
2013-9-2,76.8,72.9,68.4,76.4,72.2,0.0,100,99,95,29.87,29.73,0,0,0,0.38
2013-9-3,75.4,68.9,12.5,74.8,67.6,0.0,100,97,83,29.90,29.73,0,0,0,0.08
2013-9-4,75.2,65.4,57.5,61.4,52.4,0.0,100,81,52,29.98,29.86,12,1,12,0.01
2013-9-5,72.7,62.7,52.6,61.5,54.0,45.0,96,75,48,30.14,29.91,14,1,14,0.00
2013-9-6,66.7,56.2,47.8,48.6,44.8,41.0,86,67,45,30.25,30.12,7,1,10,0.00
2013-9-7,72.0,61.0,50.2,57.6,50.0,42.2,90,69,39,30.13,29.91,9,1,9,0.00
2013-9-8,75.6,65.0,51.6,62.1,55.2,42.5,91,72,46,30.08,29.81,8,1,14,0.00
2013-9-9,65.8,56.0,45.2,54.0,45.3,40.4,86,69,46,30.24,30.09,4,1,8,0.00
2013-9-10,73.6,66.4,58.9,70.0,64.4,54.4,100,93,84,30.18,30.07,11,2,13,0.02
2013-9-11,87.3,75.6,68.6,77.8,71.7,68.6,100,89,70,30.13,30.01,6,2,11,0.01
2013-9-12,80.2,72.9,68.2,73.5,71.0,67.9,100,94,79,30.01,29.72,9,2,12,0.52
2013-9-13,75.8,67.1,57.4,70.1,64.5,53.8,100,92,69,29.80,29.63,6,1,10,0.44
2013-9-14,68.1,57.2,50.0,54.5,51.2,48.6,96,82,58,30.09,29.79,6,1,13,0.00
2013-9-15,66.9,56.5,46.8,54.6,49.2,44.8,95,78,49,30.19,30.09,10,1,10,0.01
2013-9-16,69.1,59.6,50.4,57.2,54.2,37.9,94,83,62,30.22,30.04,6,1,12,0.00
2013-9-17,63.8,48.9,41.0,47.1,40.1,36.2,87,72,47,30.41,30.22,10,1,12,0.00
2013-9-18,68.6,56.4,45.5,52.7,46.3,40.3,92,71,41,30.34,30.18,7,1,10,0.00
2013-9-19,74.3,60.9,49.4,56.9,53.0,48.5,97,78,46,30.19,30.08,6,1,9,0.01
2013-9-20,75.6,63.5,53.7,59.8,56.9,52.8,97,81,48,30.10,30.03,8,1,9,0.01
2013-9-21,73.2,65.2,58.3,68.9,63.0,57.0,98,93,79,30.04,29.73,12,2,14,0.01
2013-9-22,70.4,63.2,50.6,68.7,57.6,42.3,100,83,58,29.88,29.65,10,2,16,0.75
2013-9-23,62.3,49.9,43.0,46.4,43.6,41.0,93,80,53,30.02,29.88,7,1,12,0.00
2013-9-24,69.8,52.0,41.8,48.3,43.7,39.4,94,76,40,30.03,29.85,7,1,14,0.00
2013-9-25,72.5,57.9,47.1,57.0,49.6,44.9,94,76,49,29.96,29.87,5,0,7,0.00
2013-9-26,66.5,57.7,51.4,55.7,51.9,49.3,95,82,58,30.11,29.96,6,0,12,0.00
2013-9-27,63.0,55.2,51.1,54.2,51.7,49.7,97,89,68,30.23,30.10,8,1,13,0.00
2013-10-4,65.5,62.5,60.0,62.8,60.8,59.1,97,94,91,30.06,30.04,0,0,3,0.00
2013-10-5,74.6,63.8,59.1,65.8,60.9,57.7,99,91,74,30.12,30.04,4,0,8,0.00
2013-10-6,62.0,60.6,58.7,62.0,60.4,58.7,100,99,97,30.17,30.08,8,1,12,0.41
2013-10-7,73.5,67.3,59.0,72.7,66.2,56.4,100,96,87,30.08,29.85,17,3,23,0.16
2013-10-8,66.5,56.4,49.2,56.3,47.3,42.9,99,73,47,30.34,29.94,15,1,18,0.00
2013-10-9,65.1,53.1,44.9,49.5,45.1,40.3,90,75,53,30.41,30.31,7,1,9,0.00
2013-10-10,61.6,54.8,47.8,56.3,50.9,45.1,92,87,78,30.31,30.11,7,1,9,0.00
2013-10-11,68.7,60.4,54.9,60.3,55.3,45.3,96,84,62,30.12,30.05,11,2,14,0.00
2013-10-12,73.1,59.5,51.0,56.8,50.5,43.8,90,73,55,30.33,30.10,11,2,22,0.00
2013-10-13,60.2,53.7,46.5,51.7,49.1,45.0,96,85,70,30.40,30.31,8,1,11,0.00
2013-10-14,64.0,51.1,42.7,50.2,46.0,42.0,98,84,50,30.39,30.26,5,1,8,0.01
2013-10-15,69.6,56.2,48.3,56.1,48.7,39.5,100,79,44,30.26,30.13,8,1,13,0.01
2013-10-16,68.1,57.5,49.4,58.1,52.6,47.0,97,84,66,30.13,29.90,4,0,8,0.00
2013-10-17,69.4,62.4,59.2,62.7,60.7,58.1,100,94,76,29.90,29.71,10,2,12,0.01
2013-10-18,68.7,61.5,52.5,63.8,51.7,42.3,100,72,46,29.93,29.64,12,3,22,0.05
2013-10-19,62.8,55.5,46.5,54.6,45.5,40.0,88,70,53,29.96,29.73,10,1,14,0.00
2013-10-20,63.3,54.7,46.9,57.2,42.4,34.3,94,66,35,30.03,29.70,9,2,14,0.00
2013-10-21,64.9,54.2,43.5,48.7,40.5,36.2,79,61,35,30.11,29.97,10,2,15,0.00
2013-10-22,67.3,58.0,48.6,53.2,49.1,40.3,91,73,53,29.97,29.70,14,3,21,0.00
2013-10-23,48.7,45.2,39.5,40.6,35.9,32.9,79,70,56,29.79,29.58,6,0,9,0.00
2013-10-24,54.2,47.1,35.5,36.5,28.8,25.7,91,51,34,29.92,29.79,16,3,22,0.00
2013-10-25,50.4,41.6,33.6,32.3,28.6,25.9,82,61,40,30.17,29.92,12,2,27,0.00
2013-10-26,52.9,45.7,34.1,39.2,32.4,27.9,90,62,39,30.16,29.86,20,5,30,0.00
2013-10-27,58.8,49.5,40.9,35.9,32.2,27.6,72,53,34,30.06,29.81,16,2,20,0.00
2013-10-28,61.3,48.2,36.4,36.6,32.2,28.6,79,56,33,30.29,30.06,16,2,16,0.00
2013-10-29,54.0,43.8,38.5,31.0,27.4,23.7,69,53,35,30.39,30.29,8,1,10,0.00
2013-10-30,56.8,48.6,39.7,47.9,39.8,25.6,94,72,55,30.32,30.17,12,1,16,0.00
2013-10-31,63.5,56.2,47.8,61.6,55.1,46.5,100,96,88,30.20,29.80,16,2,16,0.08
2013-11-1,66.3,62.8,57.1,63.3,59.8,55.4,99,90,78,29.81,29.53,20,7,32,0.06
2013-11-2,66.2,56.6,49.1,55.5,44.8,39.3,94,67,38,29.75,29.62,10,1,13,0.01
2013-11-3,49.2,41.5,31.9,33.6,25.1,13.3,69,52,38,30.42,30.03,13,4,25,0.00
2013-11-4,45.4,34.8,27.9,20.9,14.5,10.5,66,45,24,30.69,30.42,11,2,18,0.00
2013-11-5,49.6,40.1,30.5,36.8,30.5,21.4,79,69,54,30.70,30.52,10,1,11,0.00
2013-11-6,56.3,50.1,42.2,52.5,44.0,36.8,97,80,58,30.53,30.11,13,3,18,0.00
2013-11-7,59.3,51.1,35.7,57.8,49.3,32.2,100,93,79,30.10,29.75,14,4,23,0.30
2013-11-8,46.4,38.0,32.7,32.1,28.3,23.9,90,69,45,30.18,29.90,13,2,18,0.00
2013-11-9,45.6,38.1,28.8,33.0,26.0,22.5,79,63,45,30.28,30.05,14,2,16,0.00
2013-11-10,55.5,46.4,42.1,38.0,34.5,29.1,79,63,40,30.03,29.78,13,4,26,0.01
2013-11-11,49.6,44.1,35.4,33.0,28.2,23.6,66,54,38,30.17,29.97,18,5,23,0.00
2013-11-12,48.4,33.1,25.3,35.9,23.4,13.8,93,68,52,30.23,29.93,16,4,18,0.04
2013-11-13,35.3,27.8,22.6,16.2,11.5,8.0,69,51,33,30.32,30.22,14,3,17,0.00
2013-11-14,48.6,39.2,28.5,24.0,16.5,9.2,60,41,23,30.24,30.12,13,4,17,0.00
2013-11-15,53.2,44.7,38.9,38.6,27.8,16.8,84,54,24,30.26,30.18,10,3,17,0.00
2013-11-16,58.5,47.3,41.9,43.5,36.1,25.5,95,67,39,30.34,30.24,11,1,11,0.02
2013-11-17,56.5,51.7,42.7,56.5,50.9,41.4,100,97,89,30.32,29.87,8,2,13,0.06
2013-11-18,61.0,55.7,47.2,58.4,44.2,25.5,100,69,39,29.87,29.62,21,5,30,0.44
2013-11-19,47.1,38.2,29.7,27.2,21.7,16.5,60,51,41,30.31,29.74,16,5,23,0.00
2013-11-20,39.1,30.9,25.6,16.6,12.4,9.8,58,47,32,30.63,30.31,17,4,30,0.00
2013-11-21,44.8,36.4,25.4,37.5,21.9,8.5,80,56,37,30.64,30.42,10,2,13,0.00
2013-11-22,48.8,46.2,43.2,48.8,44.4,37.5,100,93,80,30.41,29.89,10,1,11,0.14
2013-11-23,47.9,39.2,28.1,47.1,24.2,9.0,97,58,29,29.99,29.87,16,4,26,0.00
2013-11-24,27.9,22.0,19.2,9.9,-0.4,-7.8,57,38,24,30.29,29.90,24,7,36,0.00
2013-11-25,32.2,24.4,14.9,16.5,8.4,2.9,60,50,35,30.43,30.28,11,4,16,0.00
2013-11-26,45.2,34.7,31.5,44.9,23.7,15.1,99,66,48,30.35,29.94,14,3,20,0.33
2013-11-27,58.6,47.4,34.7,58.6,46.4,27.7,100,96,73,29.93,29.28,26,7,36,1.99
2013-11-28,35.2,28.6,22.0,28.9,14.4,6.8,79,56,35,30.48,29.63,14,3,23,0.00
2013-11-29,34.3,27.3,22.7,16.8,12.7,9.9,63,54,46,30.73,30.47,10,1,10,0.00
2013-11-30,31.4,24.8,16.3,24.2,12.9,5.4,77,61,38,30.77,30.41,8,1,8,0.00
2013-12-1,46.5,37.3,30.9,44.6,35.3,24.5,98,92,77,30.41,30.02,3,0,6,0.05
2013-12-2,45.3,35.4,32.4,39.8,33.5,31.3,99,93,69,30.02,29.91,3,0,6,0.00
2013-12-3,48.1,36.9,30.1,37.5,31.9,29.3,98,84,54,30.01,29.88,10,1,10,0.01
2013-12-4,49.7,38.1,28.7,36.2,30.6,25.2,88,75,54,30.19,30.01,7,1,10,0.00
2013-12-5,53.8,49.0,38.1,53.8,48.4,35.2,100,98,89,30.19,29.99,13,2,13,0.01
2013-12-6,53.2,43.5,34.4,53.2,42.7,33.6,100,97,85,30.15,29.91,14,3,18,0.71
2013-12-7,36.9,32.3,27.1,33.4,25.4,15.4,98,77,57,30.51,30.08,13,3,28,0.19
2013-12-8,29.4,26.6,21.5,21.1,16.6,15.4,83,66,56,30.61,30.44,6,1,10,0.00
2013-12-9,34.9,30.6,24.7,34.5,29.7,21.3,100,96,85,30.44,29.94,11,2,13,0.19
2013-12-10,31.5,29.4,23.0,31.5,29.0,21.5,100,98,94,30.08,29.83,4,0,6,0.00
2013-12-11,30.1,25.0,20.7,22.0,18.5,15.8,94,76,64,30.28,30.08,11,2,14,0.00
2013-12-12,24.2,19.9,15.9,15.6,8.7,3.7,82,62,43,30.32,30.12,14,2,21,0.00
2013-12-13,32.0,24.1,17.4,16.0,9.5,3.5,72,54,44,30.36,30.07,17,4,18,0.00
2013-12-14,25.5,18.4,14.3,24.0,12.5,8.1,95,78,58,30.54,29.98,17,4,20,0.00
2013-12-15,32.4,29.3,25.7,32.3,28.4,22.9,100,96,83,29.97,29.45,16,3,21,0.00
2013-12-16,28.3,24.6,16.2,23.4,14.1,6.8,83,65,47,30.22,29.80,8,2,14,0.00
2013-12-17,21.1,16.6,12.9,18.6,11.5,5.5,91,80,60,30.24,29.92,14,3,17,0.00
2013-12-18,33.6,25.2,15.2,23.5,18.0,11.5,88,74,60,30.14,29.89,21,4,21,0.01
2013-12-19,41.7,33.6,24.5,29.4,23.6,17.3,75,67,48,30.17,30.01,17,4,27,0.20
2013-12-20,47.9,41.6,36.5,40.2,32.9,26.3,87,71,55,30.13,29.99,17,3,18,0.16
2013-12-21,54.3,47.5,43.4,49.7,45.4,40.4,100,93,76,30.04,29.93,10,3,14,0.00
2013-12-22,61.1,55.7,51.1,56.6,54.3,50.0,100,95,79,30.02,29.85,23,8,32,0.00
2013-12-23,55.3,49.3,37.2,54.5,48.9,32.2,100,98,82,30.13,29.91,17,2,24,0.60
2013-12-24,36.9,32.0,24.7,31.9,19.7,9.2,82,61,43,30.28,30.06,13,4,27,0.00
2013-12-25,24.4,20.3,15.4,10.6,4.0,0.6,62,49,37,30.53,30.28,13,3,17,0.00
2013-12-26,34.3,27.4,21.3,27.2,19.9,9.6,85,73,60,30.45,30.13,13,2,17,0.00
2013-12-27,36.1,28.7,22.5,21.3,19.3,16.8,87,69,46,30.33,30.24,13,1,13,0.00
2013-12-28,46.4,38.4,28.8,30.1,25.1,20.3,83,60,41,30.28,30.07,21,4,28,0.00
2013-12-29,43.5,39.8,37.4,43.2,35.2,27.8,99,84,62,30.08,29.40,14,2,20,1.31
2013-12-30,40.3,30.7,16.4,38.6,23.8,3.5,99,77,48,30.19,29.64,13,2,23,0.01
2013-12-31,25.7,19.9,12.4,17.8,8.5,0.6,74,61,41,30.24,30.06,10,3,17,0.00
2014-1-1,29.6,23.7,17.4,15.6,9.4,5.8,67,54,41,30.41,30.23,14,2,16,0.00
2014-1-2,24.9,19.7,9.2,18.0,15.2,4.6,86,82,68,30.31,29.70,20,5,30,0.00